Find Starlink 11396

NORAD ID: 62015 Int'l Des: 2024-213 Owner: SPXS Country: US Constellation: starlink operational
又名: STARLINK-11396 [DTC] celestrak
LEOCIRCULAR

当前视图

正在加载3D地球...

About Starlink 11396

Starlink 11396 (NORAD 62015) is a starlink constellation satellite (v2 mini d2c) launched Nov 18, 2024 by SPXS of US. It operates in LEO, CIRCULAR orbit with a mass of 960.00 kg.

即将过境

Passes for default location (London). Set your location on the main map for personalized predictions.

高度历史

Loading altitude history...

两行轨道根数

1 62015U 24213H 26228.59758197 .00106196 00000-0 86906-3 0 9992
2 62015 53.1581 332.7445 0001226 45.3225 314.7893 15.69742256100035
Epoch: Aug 16, 2026 • Age: 18 hours

当前状态

高度 377.9 km
远地点 / 近地点 N/A
速度 7.68 km/s
星下点 -52.48°S, 162.33°E
发射日期 Nov 18, 2024
运行时间 1.7 years
类型 internet

技术详情

分类 Payload
质量 960.00 kg
干质量 910.00 kg
总质量 960.00 kg
长度 0.30 m
直径 4.10 m
跨度 29.00 m
形状 Box + pan
制造商 SPXS
平台类型 Starlink V2MD
阶段状态 In Orbit
所有者/国家 SPXS/US

Most Searched